Showing default

LILIUM-3, 66770

Orbit data source: Space-Track

LILIUM-3, 66770 is a payload satellite owned by NCKU (TW) in SSO that was launched on Fri, 28 Nov 2025 UTC via an FALCON 9 launch vehicle from the Air Force Western Test Range (AFWTR). Payload-class satellites include a variety of spacecraft equipped with specific instruments for various scientific and technological missions. These include communications satellites like Starlink; space stations such as the ISS; scientific satellites like the Hubble; Earth observation satellites from companies like Planet Labs, Umbra, and HawkEye 360; GPS; miniature CubeSats for education and research; and military/defense satellites.

Loading next visibility...
Identifier
66770, 2025-276DJ
Orbit
SSO
Country
Flag of TWTW / TWN
Related business
Manufacturer
Satoro
Mission
Operational spacecraft
Bus & Motor
CUBESAT 6U, Unknown motor
Mass
12 kg wet, 12 kg dry
Launch date (UTC)
2025-11-28 (2 months ago)
Launch vehicle
FALCON 9
Launch site
Air Force Western Test Range (AFWTR)
Object type
Payload
Rocket body
Debris
Shape & HBR
Unknown
Radar Cross Section
RCS unknown

Expand to show TLE details & history
Last TLE update: 14 hours ago

TLE from 14 hours ago
0 LILIUM-3
1 66770U 25276DJ  26034.51179469  .00002972  00000-0  14647-3 0  9990
2 66770  97.4384 110.4752 0002465  37.8235 322.3172 15.18710715 10139
Epoch: 2026-02-03T12:16Z
TLE epoch observation values (Epoch: 2026-02-03T12:16:59.061Z)
Latitude
-0.00002°
Longitude
152.53744°
Altitude
511.48 km
Speed
7.609 km/s
True Right ascension
07h 21m 54s
True Declination
0° 00' 00"
Sunlit
Object was in full shadow at epoch
Visualization orbit readout
Latitude
Unknown
Longitude
Unknown
Altitude
Unknown
Speed
Unknown
Apparent Right ascension
Unknown
Apparent Declination
Unknown
Sunlit
N/A
Visualization observer readout
Local Sidereal Time
04:08:58
Azimuth
Unknown
Elevation
Unknown
Doppler factor
Unknown
Orbital elements
Apogee altitude
508.402 km
Perigee altitude
505.008 km
Semi-major axis
6,884.842 km
Eccentricity
0.00025
Inclination
97.4384°
RAAN
110.4752°
Arg. of periapsis
37.8235°
True anomaly
322.29993°
Mean anomaly
322.3172°
Eccentric anomaly
322.30856°
Mean motion
3.79929 °/min
Orbital period
94.75 mins
BSTAR
0.00014647
Loading maneuver chart data...
Computing Atmospheric mass density...
Loading historical data...
Loading historical data...
Loading historical data...
Loading historical data...
Loading historical data...
Loading historical data...
Loading historical data...

Documentation

Showing up to 5 results
|